MDT,Max TemperatureF,Mean TemperatureF,Min TemperatureF,Max Dew PointF,MeanDew PointF,Min DewpointF,Max Humidity, Mean Humidity, Min Humidity, Max Sea Level PressureIn, Mean Sea Level PressureIn, Min Sea Level PressureIn, Max VisibilityMiles, Mean VisibilityMiles, Min VisibilityMiles, Max Wind SpeedMPH, Mean Wind SpeedMPH, Max Gust SpeedMPH,PrecipitationIn, CloudCover, Events, WindDirDegrees
2013-3-1,44,30,15,27,20,11,84,64,43,30.48,30.41,30.35,10,10,10,10,3,14,0.00,5,,121
2013-3-2,48,34,20,31,27,18,89,71,53,30.40,30.24,29.96,10,10,9,10,3,12,0.00,0,,146
2013-3-3,52,41,30,34,27,11,92,64,35,29.92,29.75,29.55,10,9,1,46,10,62,T,4,Snow,347
2013-3-4,34,26,18,15,11,7,73,56,38,30.43,30.20,29.89,10,10,10,31,19,46,0.00,3,,330
2013-3-5,37,25,12,19,12,6,88,62,35,30.43,30.29,30.12,10,10,10,12,5,16,0.00,0,,142
2013-3-6,54,36,17,29,22,14,92,60,28,30.10,29.90,29.71,10,10,10,17,4,22,0.00,1,,138
2013-3-7,52,42,31,28,19,8,75,46,17,30.00,29.94,29.82,10,10,10,10,4,14,0.00,2,,209
2013-3-8,51,41,31,29,26,22,78,54,30,29.97,29.88,29.79,10,10,10,20,6,24,0.00,5,,309
2013-3-9,45,39,32,28,21,15,75,54,33,30.24,30.03,29.82,10,10,10,35,17,48,0.00,3,,335
2013-3-10,49,36,22,27,21,18,81,56,31,30.32,30.17,30.00,10,10,10,16,4,18,0.00,0,,154
2013-3-11,46,37,28,28,24,16,85,62,39,30.27,30.06,29.98,10,9,2,29,14,36,0.01,5,Rain-Snow,315
2013-3-12,46,33,20,23,17,14,91,61,31,30.40,30.29,30.19,10,10,10,22,7,26,0.00,3,,172
2013-3-13,63,44,24,30,25,21,81,52,23,30.25,30.19,30.11,10,10,10,10,5,14,0.00,0,,133
2013-3-14,68,50,32,31,29,25,82,51,20,30.23,30.11,29.95,10,10,10,9,4,14,0.00,0,,129
2013-3-15,67,51,35,32,27,16,82,49,16,29.96,29.90,29.81,10,10,10,22,8,31,0.00,0,,20
2013-3-16,55,45,35,36,30,26,76,59,41,29.96,29.86,29.70,10,10,10,14,4,16,T,4,,169
2013-3-17,39,34,28,30,23,9,82,57,32,29.91,29.62,29.47,10,8,1,46,13,55,T,6,Snow,332
2013-3-18,46,32,18,17,9,-2,74,45,15,30.02,29.95,29.82,10,10,10,31,9,43,0.00,4,,304
2013-3-19,43,34,24,25,17,6,92,58,23,30.33,30.20,30.00,10,9,2,18,5,25,T,4,Snow,359
2013-3-20,56,38,19,19,14,11,74,46,18,30.29,29.93,29.65,10,10,7,8,3,12,0.00,2,,138
2013-3-21,45,38,31,29,23,12,82,55,27,29.91,29.69,29.52,10,8,2,38,15,49,T,5,Snow,321
2013-3-22,39,31,22,19,11,6,60,44,27,30.12,29.95,29.87,10,10,10,30,13,38,0.00,2,,324
2013-3-23,35,27,19,11,5,0,67,46,24,30.30,30.24,30.13,10,10,10,21,12,24,0.00,1,,328
2013-3-24,33,25,17,9,6,3,67,48,29,30.34,30.31,30.29,10,10,10,26,12,37,0.00,2,,320
2013-3-25,44,28,12,7,5,3,73,46,19,30.40,30.28,30.13,10,10,10,21,6,24,0.00,0,,136
2013-3-26,53,35,17,13,9,4,67,43,18,30.13,30.03,29.96,10,10,10,9,3,,0.00,0,,170
2013-3-27,59,39,19,18,14,8,62,41,19,30.11,30.04,29.98,10,10,10,10,2,16,0.00,1,,201
2013-3-28,64,47,29,24,20,17,63,40,17,30.13,30.05,29.99,10,10,10,9,3,13,0.00,1,,126
2013-3-29,60,46,32,38,25,17,66,44,22,30.13,30.07,30.01,10,10,10,28,5,33,0.02,4,Rain,234
2013-3-30,60,47,34,41,31,19,93,58,23,30.19,30.14,30.12,10,10,6,28,7,35,0.06,4,Rain,323
2013-3-31,64,46,27,25,23,20,81,51,20,30.12,30.05,30.00,10,10,10,24,9,31,0.00,0,,345